Regional Weather Roundup
Issued by NWS

Home | Current Version | Previous Version | Graphics & Text | Print | Product List | Glossary On
Versions: 1 2 3 4 5 6 7 8 9 10 11 12 13 14 15 16 17 18 19 20 21 22 23 24 25 26 27 28 29 30 31 32 33 34 35 36 37 38 39 40 41 42 43 44 45 46 47 48 49 50
661
ASUS45 KABQ 241901
RWRNM
NEW MEXICO REGIONAL WEATHER ROUNDUP
NATIONAL WEATHER SERVICE ALBUQUERQUE NM
1200 PM MST FRI NOV 24 2017

NOTE: "FAIR" MEANS FEW OR NO CLOUDS BELOW 12,000 FEET AGL WITH NO
       SIGNIFICANT WEATHER OR OBSTRUCTIONS TO VISION.

      THIS PRODUCT IS RELEASED AS TWO VERSIONS.  ONE VERSION NEAR
      THE TOP OF THE HOUR CONTAINING PRELIMINARY DATA FROM ALBUQUERQUE
      AND OTHER STATIONS.  A FINAL VERSION WITH ADDITIONAL DATA IS
      ISSUED ABOUT 10 MINUTES AFTER THE HOUR.

NMZ501-503-504-510>518-242000-
NORTHWEST PLATEAU/NORTHCENTRAL MOUNTAINS

CITY           SKY/WX    TMP DP  RH WIND       PRES   REMARKS
FARMINGTON     FAIR      55  31  39 CALM      30.08F
LOS ALAMOS     FAIR      58  26  29 S7        30.11F
SANTA FE       FAIR      62  28  27 VRB6      30.07F
TAOS           FAIR      61  25  25 SW17      30.11F
ANGEL FIRE     FAIR      56  17  21 W28G33    30.11S

$$
NMZ402-403-502-505>509-242000-
WESTCENTRAL MOUNTAINS/SOUTHWEST MOUNTAINS

CITY           SKY/WX    TMP DP  RH WIND       PRES   REMARKS
GALLUP         FAIR      67  25  20 W10       30.14F
GRANTS         FAIR      60  26  26 CALM      30.15F
SILVER CITY    FAIR      72  24  16 W18       30.09F

$$
NMZ407-409-411-412-242000-
SOUTHERN DESERTS

CITY           SKY/WX    TMP DP  RH WIND       PRES   REMARKS
DEMING         FAIR      74  27  17 W12       30.04F
LAS CRUCES     FAIR      69  25  18 SW7       30.05F
ALAMOGORDO     FAIR      66  27  22 CALM      30.05F
T OR C         FAIR     N/A N/A N/A VRB3      30.05F

$$
NMZ519>523-242000-
CENTRAL VALLEYS/CENTRAL HIGHLANDS

CITY           SKY/WX    TMP DP  RH WIND       PRES   REMARKS
ALBUQUERQUE    FAIR      60  28  29 S3        30.08F
DOUBLE EAGLE   MOSUNNY   63  30  29 S7        30.09
MORIARTY ARPT  FAIR      71  22  16 NW10G17   30.07F
CLINES CORNERS FAIR      64  21  19 W22       30.08F
BELEN          FAIR      61  25  25 CALM      30.08F
SOCORRO        FAIR      61  24  23 CALM      30.07F

$$
NMZ524>526-539-540-242000-
SOUTHCENTRAL MOUNTAINS

CITY           SKY/WX    TMP DP  RH WIND       PRES   REMARKS
RUIDOSO        FAIR      66  18  15 NW16G24   30.12F

$$
NMZ527>531-242000-
NORTHEAST HIGHLANDS/NORTHEAST PLAINS

CITY           SKY/WX    TMP DP  RH WIND       PRES   REMARKS
LAS VEGAS      FAIR      68  12  11 E6        30.00F
RATON          FAIR      62  18  18 SE3       29.95F
CLAYTON        FAIR      77   9   7 W13       29.83F

$$
NMZ532>537-242000-
EASTCENTRAL PLAINS

CITY           SKY/WX    TMP DP  RH WIND       PRES   REMARKS
SANTA ROSA     FAIR      76  21  13 W21G32    29.89F
TUCUMCARI      FAIR      74  26  16 W15       29.80F
CANNON AFB     FAIR      70  27  20 W23G29    29.86F
CLOVIS AIRPORT FAIR      71  30  21 W21       29.86F

$$
NMZ028-029-538-242000-
SOUTHEAST PLAINS

CITY           SKY/WX    TMP DP  RH WIND       PRES   REMARKS
ROSWELL        FAIR      69  35  28 CALM      29.89F
ARTESIA        FAIR      77  34  20 E6        29.88F
CARLSBAD       FAIR      76  36  23 S9        29.87F
HOBBS          SUNNY     79  28  15 W15       29.89F


$$




USA.gov is the U.S. government's official web portal to all federal, state and local government web resources and services.